GW1675 Weather Reports


time (UTC)temp
C
wind
direction
speed
KPH
gust
KPH
rain 1hr
cm
rain 24hr
cm
rain mn
cm
humidity
%
barometer
mb
20260509200053 16 185 4.8 14.5 0.00 0.84 0.74 77 1014.1
20260509194542 16 185 4.8 16.1 0.00 0.84 0.74 77 1013.9
20260509193044 16 185 4.8 16.1 0.00 0.84 0.74 77 1013.9
20260509191550 16 185 9.7 20.9 0.00 0.84 0.74 77 1013.8
20260509190045 16 186 11.3 16.1 0.00 0.84 0.74 77 1013.4
20260509184546 16 186 6.4 19.3 0.00 0.84 0.74 76 1013.3
20260509183106 16 186 4.8 12.9 0.00 0.84 0.74 76 1013.2
20260509181557 16 186 9.7 17.7 0.00 0.84 0.74 76 1013.1
20260509180055 16 188 16.1 30.6 0.00 0.84 0.74 76 1012.8
20260509174547 17 182 12.9 27.4 0.00 0.84 0.74 76 1012.8
20260509173044 17 174 12.9 25.7 0.00 0.84 0.74 76 1012.5
20260509171545 17 176 14.5 27.4 0.00 0.84 0.74 76 1012.4
20260509170043 18 179 14.5 27.4 0.00 0.84 0.74 75 1012.2
20260509164544 18 186 16.1 41.8 0.00 0.84 0.74 76 1012.2
20260509163038 18 191 17.7 38.6 0.00 0.84 0.74 76 1012.1
20260509161546 18 192 20.9 41.8 0.00 0.84 0.74 76 1011.8
20260509160045 18 191 19.3 35.4 0.00 0.84 0.74 76 1011.6
20260509154549 18 194 20.9 35.4 0.00 0.84 0.74 76 1011.6
20260509153042 18 189 20.9 35.4 0.00 0.84 0.74 76 1011.3
20260509151550 19 195 14.5 37.0 0.00 0.84 0.74 77 1011.3
20260509150048 18 193 16.1 43.5 0.00 0.84 0.74 77 1011.3
20260509144544 18 190 17.7 35.4 0.00 0.84 0.74 77 1011.2
20260509143043 18 187 19.3 32.2 0.00 0.84 0.74 77 1011.2
20260509141545 18 188 20.9 37.0 0.00 0.84 0.74 77 1011.2
20260509140054 18 166 14.5 27.4 0.00 0.84 0.74 77 1011.1
20260509134541 18 180 16.1 32.2 0.00 0.84 0.74 77 1011.2
20260509133047 18 170 17.7 30.6 0.00 0.84 0.74 77 1011.0
20260509131544 18 184 20.9 38.6 0.00 0.84 0.74 77 1011.0
20260509130045 18 181 17.7 35.4 0.00 0.84 0.74 77 1010.9
20260509124546 18 198 22.5 45.1 0.00 0.84 0.74 77 1011.0
20260509123054 18 177 14.5 32.2 0.00 0.84 0.74 78 1010.9
20260509121545 18 185 22.5 43.5 0.00 0.84 0.74 78 1011.0
20260509120051 18 188 17.7 38.6 0.00 0.84 0.74 78 1010.7
20260509114554 18 188 14.5 40.2 0.00 0.84 0.74 79 1010.6
20260509113043 18 186 20.9 33.8 0.00 0.84 0.74 79 1010.4
20260509111549 17 181 16.1 33.8 0.00 0.84 0.74 79 1010.4
20260509110044 18 193 14.5 33.8 0.00 0.84 0.74 80 1010.2
20260509104546 18 198 17.7 41.8 0.00 0.84 0.74 80 1010.0
20260509103045 17 201 17.7 35.4 0.00 0.84 0.74 80 1010.1
20260509101552 17 205 19.3 37.0 0.00 0.84 0.74 81 1009.6
20260509100043 17 210 22.5 35.4 0.00 0.84 0.74 81 1009.3
20260509094546 17 202 17.7 32.2 0.00 0.84 0.74 81 1008.9
20260509093051 17 203 17.7 33.8 0.00 0.84 0.74 82 1008.7
20260509091546 17 200 17.7 35.4 0.00 0.84 0.74 82 1008.4
20260509090045 17 208 20.9 40.2 0.00 0.84 0.74 82 1008.2
20260509084552 17 193 22.5 40.2 0.00 0.84 0.74 82 1008.0
20260509083042 16 187 11.3 32.2 0.00 0.84 0.74 82 1007.7
20260509081543 15 179 14.5 29.0 0.10 0.84 0.74 81 1007.7
20260509080054 15 174 16.1 29.0 0.13 0.84 0.74 81 1007.5
20260509074546 14 173 11.3 22.5 0.13 0.84 0.74 81 1007.6
20260509073046 14 177 12.9 38.6 0.13 0.84 0.74 81 1007.7
20260509071544 16 141 11.3 32.2 0.03 0.74 0.61 81 1007.4
20260509070045 16 143 11.3 24.1 0.00 0.71 0.58 82 1007.3
20260509064551 16 151 9.7 22.5 0.00 0.71 0.58 82 1007.2
20260509063046 16 167 14.5 25.7 0.00 0.71 0.58 82 1007.5
20260509061544 15 181 11.3 19.3 0.00 0.69 0.56 82 1007.7
20260509060048 15 188 8.0 19.3 0.03 0.69 0.56 81 1007.4
20260509054544 14 189 6.4 19.3 0.03 0.69 0.56 81 1007.6
20260509053052 13 189 8.0 25.7 0.03 0.69 0.56 81 1007.3
20260509051548 15 159 11.3 29.0 0.03 0.69 0.56 81 1007.5
20260509050047 15 148 3.2 11.3 0.00 0.64 0.53 81 1007.1
20260509044545 15 148 8.0 17.7 0.00 0.64 0.53 81 1007.2
20260509043041 15 148 4.8 14.5 0.00 0.64 0.53 80 1007.3
20260509041546 15 148 6.4 19.3 0.00 0.64 0.53 80 1007.5
20260509040049 15 150 11.3 20.9 0.00 0.64 0.53 80 1007.6
20260509034546 15 148 9.7 20.9 0.00 0.64 0.53 80 1007.5
20260509033046 15 150 11.3 19.3 0.03 0.64 0.53 79 1007.8
20260509031546 15 154 8.0 20.9 0.03 0.64 0.53 79 1007.8
20260509030047 15 162 6.4 14.5 0.08 0.64 0.53 79 1007.9
20260509024545 15 162 16.1 35.4 0.28 0.64 0.51 79 1008.0
20260509023050 16 155 11.3 27.4 0.28 0.61 0.48 79 1008.2
20260509021553 15 141 6.4 19.3 0.28 0.61 0.48 79 1008.0
20260509020052 16 141 9.7 24.1 0.18 0.53 0.41 79 1008.5
20260509014545 16 136 8.0 22.5 0.00 0.33 0.20 79 1008.1
20260509013055 16 140 12.9 24.1 0.00 0.33 0.20 79 1008.8
20260509011548 16 130 8.0 22.5 0.00 0.33 0.20 79 1008.6
20260509010044 16 129 8.0 16.1 0.00 0.33 0.20 78 1008.7
20260509004543 15 129 6.4 11.3 0.00 0.33 0.20 78 1009.2
20260509003052 14 129 1.6 4.8 0.08 0.33 0.20 77 1009.5
20260509001544 14 129 3.2 8.0 0.18 0.33 0.20 77 1009.8
20260509000048 14 0 0.0 1.6 0.20 0.33 0.20 77 1009.9
20260508234545 13 0 0.0 8.0 0.20 0.33 0.20 76 1010.3
20260508233059 13 129 1.6 4.8 0.15 0.25 0.13 75 1010.5
20260508231546 13 129 3.2 4.8 0.08 0.15 0.03 75 1010.5
20260508230054 13 129 0.0 3.2 0.10 0.10 0.00 74 1010.8
20260508224544 13 0 0.0 4.8 0.10 0.10 0.10 74 1011.0
20260508223047 13 129 1.6 6.4 0.08 0.08 0.08 73 1011.2
20260508221545 13 0 0.0 8.0 0.08 0.08 0.08 73 1011.3
20260508220045 14 129 8.0 19.3 0.00 0.00 0.00 73 1011.6
20260508214545 15 129 9.7 24.1 0.00 0.00 0.00 73 1011.6
20260508213041 16 128 3.2 16.1 0.00 0.00 0.00 73 1011.2
20260508211543 16 128 3.2 16.1 0.00 0.00 0.00 73 1011.2
20260508210044 16 128 6.4 17.7 0.00 0.00 0.00 73 1011.0
20260508204550 16 128 6.4 14.5 0.00 0.00 0.00 73 1011.1
20260508203053 16 128 4.8 11.3 0.00 0.00 0.00 73 1011.1
20260508201545 16 128 6.4 12.9 0.00 0.00 0.00 72 1010.8